Simultaneous Nadir Overpasses (SNOs) Predictions

Prediction of SNOs between METOP-B and TERRA Satellite Orbit:

Table of predicted SNOs for the next 14.0 days since TLE Epoch: 11/16/2019
Index Date (METOP-B) Time (METOP-B) Lat,Lon (METOP-B) SZA (METOP-B ) Date (TERRA) Time (TERRA) Lat,Lon (TERRA) SZA (TERRA ) Distance(km) Time Diff (sec)
1 11/18/2019 07:23:35 -81.28, -63.78 76.49 11/18/2019 07:23:43 -81.28, -63.95 76.51 2.88 8
2 11/18/2019 08:14:15 81.29, 103.87 103.56 11/18/2019 08:13:09 81.29, 103.75 103.52 2.00 66
3 11/21/2019 02:07:20 81.27,-165.51 104.04 11/21/2019 02:08:31 81.27,-165.32 104.09 3.23 71
4 11/21/2019 02:58:00 -81.28, 2.14 75.92 11/21/2019 02:57:58 -81.27, 2.30 75.91 2.84 2
5 11/23/2019 21:41:42 81.28, -98.84 104.65 11/23/2019 21:42:44 81.28, -98.76 104.69 1.41 62
6 11/23/2019 22:32:22 -81.28, 68.81 75.31 11/23/2019 22:32:11 -81.28, 68.89 75.31 1.22 11
7 11/26/2019 17:16:05 81.28, -32.19 105.21 11/26/2019 17:16:58 81.28, -32.25 105.23 1.14 53
8 11/26/2019 18:06:45 -81.28, 135.47 74.75 11/26/2019 18:06:25 -81.29, 135.42 74.77 0.88 20
9 11/29/2019 12:50:29 81.28, 34.06 105.66 11/29/2019 12:51:12 81.29, 34.22 105.70 2.94 43




NCC Satellite Simultaneous Nadir Overpasses (SNOs) Prediction Service
